Location: Bazugues
(43.4465°N, 0.3432°E)
Time: 03:58:51
(UTC+00:00)

BREEZE-M DEB (TANK) - Visible Passes

Search period start: 21 April 2026 00:00
Search period end: 01 May 2026 00:00
Orbit: 345 x 14318 km, 49.5° (Epoch: 20 April)

Date Brightness Start Highest point End Pass type
(mag) Time Alt. Az. Time Alt. Az. Time Alt. Az.
21 Apr 7.0 03:18:46 12° WSW 04:27:52 75° NNW 04:38:43 10° ENE visible
21 Apr 8.8 20:19:06 10° SE 21:30:44 27° ESE 22:02:19 10° ENE visible
22 Apr 7.6 00:43:16 10° SW 02:28:41 87° SSE 02:45:52 10° ENE visible
22 Apr 8.3 22:36:09 10° S 00:26:41 64° SE 00:52:19 10° ENE visible
23 Apr 6.5 04:30:13 10° W 05:21:01 70° N 05:29:25 10° E visible
23 Apr 8.7 20:49:55 10° SSE 22:24:11 41° ESE 22:56:51 10° ENE visible
24 Apr 7.3 01:50:10 10° SW 03:23:02 81° NNW 03:36:40 10° ENE visible
24 Apr 9.0 19:35:22 10° SE 20:26:11 19° E 20:54:16 10° ENE visible
24 Apr 8.0 23:29:43 10° SSW 01:22:15 78° SE 01:43:30 10° ENE visible
25 Apr 8.6 21:31:22 10° S 23:19:08 55° SE 23:49:15 10° ENE visible
26 Apr 6.9 03:04:59 10° WSW 04:16:42 73° N 04:27:19 10° ENE visible
26 Apr 8.8 19:55:23 10° SSE 21:17:52 32° ESE 21:52:01 10° ENE visible
27 Apr 7.6 00:30:09 10° SW 02:17:15 89° NNW 02:34:18 10° ENE visible
27 Apr 9.1 19:08:42 10° E 19:22:50 11° E 19:34:31 10° E visible
27 Apr 8.3 22:20:07 10° SSW 00:14:47 70° SE 00:40:41 10° ENE visible
28 Apr 6.5 04:20:45 10° W 05:09:38 71° N 05:17:48 10° E visible
28 Apr 8.6 20:30:08 10° SSE 22:11:30 46° ESE 22:45:29 10° ENE visible
29 Apr 7.3 01:38:52 10° WSW 03:11:31 78° NNW 03:24:54 10° ENE visible
29 Apr 8.9 19:07:20 10° SE 20:12:29 24° E 20:45:10 10° ENE visible
29 Apr 8.0 23:15:03 10° SSW 01:10:21 83° SE 01:31:35 10° ENE visible
30 Apr 8.6 21:13:54 10° S 23:06:35 60° SE 23:37:22 10° ENE visible
